Regional Weather Roundup
Issued by NWS

Home | Current Version | Previous Version | Text Only | Print | Product List | Glossary On
Versions: 1 2 3 4 5 6 7 8 9 10 11 12 13 14 15 16 17 18 19 20 21 22 23 24 25 26 27 28 29 30 31 32 33 34 35 36
181
ASPQ40 PGUM 252113
RWRPQ
WEATHER ROUNDUP FOR THE MARIANAS AND MICRONESIA
NATIONAL WEATHER SERVICE TIYAN GU
700 AM CHST SUN FEB 26 2017

GUZ001>004-252200-
MARIANA ISLANDS-

CITY           SKY/WX    TMP DP  RH WIND       PRES   REMARKS
GUAM AIRPORT   CLEAR     81  73  78 E16       29.89R
ANDERSEN AFB   MOCLDY    79  73  83 E17       29.90R
ROTA AIRPORT   PTCLDY    77  73  88 E12G18    29.90
TINIAN AP      PTCLDY    79  75  89 E12       29.89R
SAIPAN AP      PTCLDY    79  75  89 E18       29.89R

$$

PMZ161-252200-
REPUBLIC OF PALAU-

CITY           SKY/WX    TMP DP  RH WIND       PRES   REMARKS
KOROR AP       MOCLDY    81  77  89 E9        29.77R
KOROR WSO      CLOUDY    81  77  89 E6        29.78R

$$

PMZ171>174-252200-
FEDERATED STATES OF MICRONESIA-

CITY           SKY/WX    TMP DP  RH WIND       PRES   REMARKS
YAP AIRPORT    CLOUDY    79  77  94 VRB5      29.78R
CHUUK AP       PTSUNNY   82  77  83 NE12      29.78R HX  91
POHNPEI AP     NOT AVBL
POHNPEI WSO    LGT RAIN  81  75  83 NE7       29.79R
KOSRAE AP      NOT AVBL

$$

PMZ181-252200-
REPUBLIC OF THE MARSHALL ISLANDS-

CITY           SKY/WX    TMP DP  RH WIND       PRES   REMARKS
KWAJALEIN AP   PTSUNNY   82  72  69 NE21G28   29.83S
MAJURO AP      NOT AVBL
MAJURO WSO     PTSUNNY   84  75  74 NE14      29.83R HX  92

$$





USA.gov is the U.S. government's official web portal to all federal, state and local government web resources and services.